Hourly Data Report for September 09, 2017

All times are specified in Local Standard Time (LST). Add 1 hour to adjust for Daylight Saving Time where and when it is observed.

IQALUIT CLIMATE
NUNAVUT

63°44'50.000" N
68°32'40.000" W
33.50 m
2402592
71321
XFB

Download Data

Hourly Data (September 2017)
Hourly Data Report for September 9, 2017
Temp Definition
°C
Dew Point Temp Definition
°C
Rel Hum Definition
%
Wind Dir Definition
10's deg

Wind Spd Definition
km/h
Visibility Definition
km
Stn Press Definition
kPa
Hmdx Definition


Wind Chill Definition


Weather Definition


TIME
00:00 3.6 2.2 91 14 27   99.94     LegendNANA
01:00 4.0 2.6 90 15 25   99.77     LegendNANA
02:00 3.9 2.4 90 15 28   99.53     LegendNANA
03:00 4.9 3.0 88 16 29   99.36     LegendNANA
04:00 6.2 3.7 84 15 26   99.24     LegendNANA
05:00 7.4 4.0 79 17 28   99.01     LegendNANA
06:00 7.5 4.0 78 14 32   98.88     LegendNANA
07:00 7.4 3.6 77 16 24   98.78     LegendNANA
08:00 9.6 5.4 75 19 23   98.76     LegendNANA
09:00 9.8 5.2 73 21 28   98.68     LegendNANA
10:00 10.7 6.2 74 22 32   98.70     LegendNANA
11:00 10.3 6.1 75 17 10   98.71     LegendNANA
12:00 11.0 6.8 75 24 33   98.69     LegendNANA
13:00 12.0 7.2 72 26 28   98.76     LegendNANA
14:00 11.7 6.5 70 28 24   98.81     LegendNANA
15:00 10.9 5.7 70 27 31   98.86     LegendNANA
16:00 10.4 5.6 72 27 24   98.90     LegendNANA
17:00 8.6 5.8 83 29 20   98.95     LegendNANA
18:00 4.8 3.3 90 33 35   99.05     LegendNANA
19:00 3.3 1.3 87 34 35   99.19     LegendNANA
20:00 3.3 0.1 80 32 27   99.31     LegendNANA
21:00 3.2 0.4 82 32 31   99.37     LegendNANA
22:00 2.9 0.3 83 32 41   99.47     LegendNANA
23:00 2.9 -0.2 80 32 38   99.59     LegendNANA

Notes on Data Quality.

Legend

  • E = Estimated
  • M = Missing
  • NA = Not Available
  • ‡ = Partner data that is not subject to review by the National Climate Archives
Date modified: